Flag for Germany Weather past 2 weeks in Deggendorf, Bavaria, Germany

Now
51 °F

Overcast.


Feels Like: 51 °F
Forecast: 59 / 82 °F
Wind: 1 mph from Southwest

Location: Straubing

Current Time: Aug 1, 2015 at 3:51:20 AM

Latest Report: Aug 1, 2015 at 3:00 AM


Visibility: 19 mi

Pressure: 29.97 "Hg

Humidity: 87%

Dew point: 47 °F

Location of DeggendorfLocation

Historic Weather in Deggendorf — Graph

°F

Deggendorf temperature yesterday

Maximum temperature yesterday: 73 °F (at 4:00 PM)
Minimum temperature yesterday: 53 °F (at 7:00 AM)
Average temperature yesterday: 63 °F

Past Weeks' High & Low Weather Summary

 TemperatureHumidityPressure
High94 °F (Jul 22, 6:00 PM)97% (Jul 23, 11:00 AM)30.09 "Hg (Jul 23, 11:00 AM)
Low47 °F (Jul 30, 3:00 AM)27% (Jul 17, 6:00 PM)29.67 "Hg (Jul 27, 3:00 PM)
Average70 °F63%29.90 "Hg
* Reported Jul 17 3:00 AM — Aug 1 3:00 AM, Deggendorf, Weather by CustomWeather, © 2015

Note: Actual official high and low records may vary slightly from our data, if they occured in-between our weather recording intervals... More about our weather records

Advertising

Deggendorf weather history for previous 24 hours

 ConditionsComfort  
Time TempWeatherWind HumidityBarometerVisibility
3:00 AM
Sat, Aug 1
51 °FOvercast.1 mph87%29.97 "Hg19 mi
2:00 AM49 °FOvercast.1 mph87%29.97 "Hg19 mi
1:00 AM51 °FPassing clouds.1 mph82%29.97 "Hg19 mi
12:00 AM52 °FClear.2 mph79%29.98 "Hg22 mi
11:00 PM
Fri, Jul 31
55 °FPassing clouds.1 mph72%29.98 "Hg34 mi
10:00 PM61 °FClear.1 mph55%29.98 "Hg43 mi
9:00 PM67 °FPassing clouds.1 mph40%29.96 "Hg43 mi
8:00 PM70 °FSunny.2 mph36%29.96 "Hg43 mi
7:00 PM72 °FPassing clouds.3 mph31%29.96 "Hg43 mi
6:00 PM72 °FSunny.3 mph32%29.97 "Hg40 mi
4:00 PM73 °FSunny.2 mph33%29.98 "Hg28 mi
3:00 PM72 °FSunny.2 mph33%30.01 "Hg43 mi
2:00 PM71 °FPartly sunny.2 mph31%30.03 "Hg18 mi
1:00 PM71 °FSunny.1 mph38%30.04 "Hg22 mi
12:00 PM68 °FSunny.2 mph38%30.06 "Hg31 mi
10:00 AM64 °FSunny.1 mph49%30.08 "Hg31 mi
9:00 AM58 °FSunny.2 mph64%30.09 "Hg19 mi
8:00 AM56 °FPassing clouds.2 mph64%30.08 "Hg28 mi
7:00 AM53 °FOvercast.1 mph80%30.08 "Hg28 mi
4:00 AM55 °FOvercast.2 mph69%30.06 "Hg43 mi
3:00 AM55 °FOvercast.2 mph75%30.06 "Hg37 mi
Weather by CustomWeather, © 2015

See weather overviewHow to use our weather pages